Flag for Poland Weather past 2 weeks in Tychy, Poland

Now
63 °F

Sprinkles. Passing clouds.


Feels Like: 63 °F
Forecast: 61 / 70 °F
Wind: 8 mph from North

Location: Katowice Airport

Current Time: Jul 23, 2014 at 8:53:07 PM

Latest Report: Jul 23, 2014 at 8:00 PM


Visibility: N/A

Pressure: 29.95 "Hg

Humidity: 88%

Dew point: 59 °F

Location of TychyLocation

Historic Weather in Tychy — Graph

°F

Tychy temperature yesterday

Maximum temperature yesterday: 81 °F (at 2:00 PM)
Minimum temperature yesterday: 63 °F (at 5:30 AM)
Average temperature yesterday: 73 °F

Past Weeks' High & Low Weather Summary

 TemperatureHumidityPressure
High88 °F (Jul 20, 3:00 PM)100% (Jul 9, 3:00 PM)30.15 "Hg (Jul 9, 3:00 PM)
Low54 °F (Jul 13, 2:00 AM)30% (Jul 14, 4:00 PM)29.65 "Hg (Jul 9, 3:00 AM)
Average69 °F71%29.92 "Hg
* Reported Jul 8 7:00 PM — Jul 23 7:30 PM, Tychy, Weather by CustomWeather, © 2014

Note: Actual official high and low records may vary slightly from our data, if they occured in-between our weather recording intervals... More about our weather records

Advertising

Tychy weather history for previous 24 hours

 ConditionsComfort  
Time TempWeatherWind HumidityBarometerVisibility
7:30 PM
Jul 23
63 °FPassing clouds.7 mph88%29.95 "HgN/A
7:00 PM63 °FPassing clouds.7 mph88%29.95 "HgN/A
6:30 PM63 °FSprinkles. Scattered clouds.8 mph88%29.95 "HgN/A
6:00 PM63 °FScattered clouds.8 mph88%29.95 "HgN/A
5:30 PM63 °FThundershowers. Partly sunny.13 mph88%29.92 "HgN/A
5:00 PM64 °FThundershowers. Partly sunny.17 mph83%29.95 "HgN/A
4:30 PM72 °FPassing clouds.20 mph57%29.92 "HgN/A
4:00 PM75 °FPassing clouds.14 mph47%29.89 "HgN/A
3:30 PM75 °FPassing clouds.16 mph47%29.89 "HgN/A
3:00 PM75 °FPassing clouds.15 mph50%29.92 "HgN/A
2:30 PM77 °FPassing clouds.16 mph44%29.92 "HgN/A
2:00 PM75 °FPassing clouds.18 mph47%29.92 "HgN/A
1:30 PM77 °FPassing clouds.23 mph47%29.92 "HgN/A
1:00 PM75 °FScattered clouds.18 mph54%29.92 "HgN/A
12:30 PM73 °FScattered clouds.16 mph61%29.95 "HgN/A
12:00 PM75 °FScattered clouds.18 mph54%29.95 "HgN/A
11:00 AM73 °FScattered clouds.15 mph57%29.95 "HgN/A
7:30 AM64 °FSunny.8 mph78%29.98 "Hg10 mi
7:00 AM63 °FPassing clouds.7 mph77%29.98 "HgN/A
6:30 AM61 °FPassing clouds.8 mph83%29.98 "HgN/A
6:00 AM59 °FPassing clouds.5 mph88%29.95 "HgN/A
5:30 AM59 °FClear.5 mph82%29.95 "Hg10 mi
5:00 AM59 °FClear.6 mph82%29.95 "Hg10 mi
4:30 AM59 °FClear.6 mph88%29.95 "Hg10 mi
4:00 AM59 °FClear.7 mph88%29.95 "Hg10 mi
3:30 AM59 °FClear.5 mph88%29.95 "Hg10 mi
3:00 AM61 °FClear.5 mph83%29.95 "Hg10 mi
2:30 AM61 °FClear.6 mph83%29.95 "Hg10 mi
2:00 AM63 °FClear.6 mph77%29.98 "Hg10 mi
Weather by CustomWeather, © 2014

See weather overviewHow to use our weather pages